Total_Precipitation_Accumulation
0.00 0.00 0.00 0.00 0.00 0.00 0.00 0.00 0.00 0.00 0.00 0.00 0.00 0.00 0.00 0.00 0.00 0.00 0.02 0.36 0.42 0.07 0.02 0.01 0.03 0.03 0.07 0.16 0.18 0.20 0.04 0.00 0.06 0.13 0.09 0.05 0.17 0.28 0.44 0.58 0.33 0.15 0.10 0.23
0.00 0.00 0.00 0.00 0.00 0.00 0.00 0.00 0.00 0.00 0.00 0.00 0.00 0.00 0.00 0.00 0.00 0.00 0.00 0.06 0.28 0.10 0.02 0.00 0.01 0.02 0.02 0.05 0.09 0.14 0.09 0.09 0.14 0.19 0.28 0.25 0.37 1.08 0.89 0.67 0.26 0.17 0.18 0.26
0.00 0.00 0.00 0.00 0.00 0.00 0.00 0.00 0.00 0.00 0.00 0.00 0.00 0.00 0.00 0.00 0.00 0.00 0.00 0.03 0.12 0.09 0.00 0.00 0.00 0.00 0.01 0.04 0.03 0.07 0.09 0.10 0.06 0.14 0.20 0.21 0.83 2.06 1.31 0.52 0.36 0.26 0.28 0.20
0.00 0.00 0.00 0.00 0.00 0.01 0.02 0.01 0.00 0.00 0.00 0.00 0.00 0.00 0.00 0.01 0.03 0.00 0.00 0.00 0.08 0.19 0.01 0.02 0.01 0.00 0.00 0.03 0.04 0.05 0.06 0.11 0.04 0.03 0.25 0.73 1.52 1.30 0.48 0.13 0.07 0.06 0.06 0.15
0.00 0.00 0.00 0.00 0.00 0.00 0.01 0.00 0.00 0.00 0.00 0.00 0.00 0.00 0.00 0.00 0.03 0.04 0.00 0.00 0.11 0.54 0.16 0.07 0.01 0.00 0.00 0.02 0.02 0.05 0.04 0.07 0.12 0.05 0.23 0.61 0.73 0.34 0.18 0.15 0.08 0.03 0.06 0.13
0.00 0.00 0.00 0.00 0.00 0.00 0.00 0.01 0.00 0.00 0.00 0.00 0.00 0.00 0.00 0.00 0.06 0.05 0.00 0.02 0.06 0.36 0.14 0.04 0.00 0.00 0.00 0.01 0.01 0.02 0.02 0.04 0.08 0.11 0.03 0.17 0.23 0.15 0.14 0.07 0.02 0.00 0.00 0.03
0.00 0.00 0.00 0.00 0.00 0.00 0.00 0.00 0.00 0.00 0.00 0.00 0.00 0.01 0.00 0.00 0.00 0.00 0.01 0.04 0.02 0.01 0.01 0.01 0.00 0.00 0.00 0.00 0.00 0.01 0.01 0.03 0.04 0.06 0.04 0.09 0.11 0.04 0.03 0.02 0.02 0.00 0.00 0.00
0.00 0.00 0.00 0.00 0.00 0.00 0.00 0.00 0.01 0.00 0.01 0.01 0.00 0.01 0.00 0.00 0.00 0.00 0.02 0.02 0.01 0.00 0.00 0.00 0.00 0.00 0.00 0.00 0.00 0.01 0.01 0.00 0.00 0.01 0.02 0.04 0.02 0.01 0.01 0.02 0.00 0.00 0.00 0.01
0.00 0.00 0.00 0.00 0.00 0.00 0.00 0.00 0.02 0.00 0.00 0.00 0.00 0.00 0.00 0.00 0.00 0.00 0.00 0.01 0.01 0.00 0.00 0.00 0.00 0.00 0.00 0.00 0.00 0.00 0.00 0.00 0.00 0.00 0.00 0.00 0.00 0.02 0.01 0.00 0.00 0.00 0.00 0.00
0.00 0.00 0.00 0.00 0.00 0.00 0.00 0.01 0.00 0.00 0.00 0.00 0.00 0.00 0.00 0.01 0.00 0.00 0.00 0.01 0.01 0.00 0.01 0.00 0.00 0.00 0.00 0.00 0.00 0.00 0.00 0.00 0.01 0.01 0.01 0.02 0.05 0.04 0.00 0.00 0.00 0.00 0.00 0.00
0.00 0.00 0.00 0.00 0.00 0.00 0.00 0.00 0.00 0.00 0.00 0.00 0.00 0.00 0.00 0.02 0.02 0.02 0.03 0.04 0.03 0.03 0.00 0.00 0.00 0.00 0.01 0.00 0.00 0.00 0.00 0.00 0.02 0.02 0.01 0.03 0.02 0.00 0.00 0.00 0.00 0.00 0.00 0.02
0.00 0.00 0.00 0.00 0.00 0.00 0.00 0.00 0.00 0.00 0.00 0.00 0.00 0.00 0.00 0.01 0.00 0.00 0.01 0.05 0.09 0.09 0.06 0.07 0.02 0.07 0.08 0.07 0.03 0.00 0.01 0.00 0.01 0.02 0.01 0.01 0.01 0.00 0.00 0.00 0.00 0.00 0.00 0.04
0.00 0.00 0.00 0.00 0.00 0.00 0.00 0.00 0.00 0.00 0.00 0.00 0.00 0.00 0.01 0.00 0.00 0.01 0.07 0.06 0.06 0.15 0.03 0.12 0.14 0.18 0.18 0.12 0.10 0.07 0.04 0.05 0.04 0.00 0.00 0.00 0.00 0.00 0.00 0.01 0.01 0.03 0.04 0.03
0.00 0.00 0.00 0.01 0.01 0.00 0.00 0.00 0.00 0.00 0.00 0.00 0.00 0.02 0.05 0.01 0.01 0.01 0.02 0.01 0.02 0.22 0.08 0.13 0.18 0.29 0.30 0.25 0.26 0.23 0.17 0.10 0.02 0.00 0.00 0.00 0.00 0.00 0.02 0.08 0.04 0.05 0.08 0.04
0.00 0.00 0.00 0.00 0.00 0.00 0.00 0.00 0.00 0.00 0.00 0.01 0.02 0.08 0.12 0.16 0.05 0.00 0.03 0.04 0.09 0.15 0.09 0.17 0.40 0.72 0.70 0.56 0.32 0.24 0.20 0.16 0.18 0.08 0.00 0.00 0.01 0.05 0.11 0.11 0.08 0.14 0.11 0.04
0.00 0.00 0.00 0.00 0.00 0.00 0.00 0.00 0.00 0.00 0.00 0.00 0.00 0.00 0.02 0.04 0.00 0.00 0.00 0.01 0.05 0.10 0.02 0.12 0.84 1.28 0.57 0.28 0.37 0.76 0.89 1.07 0.91 0.40 0.03 0.01 0.05 0.20 0.18 0.17 0.21 0.18 0.07 0.03
0.00 0.00 0.00 0.00 0.00 0.00 0.00 0.00 0.00 0.00 0.00 0.00 0.00 0.00 0.00 0.03 0.13 0.03 0.00 0.00 0.00 0.00 0.00 0.02 0.19 0.13 0.05 0.36 0.83 1.10 1.20 1.06 0.75 0.27 0.08 0.16 0.30 0.25 0.18 0.25 0.16 0.08 0.05 0.03
0.00 0.00 0.00 0.00 0.00 0.01 0.00 0.00 0.00 0.00 0.00 0.00 0.00 0.00 0.00 0.09 0.14 0.00 0.00 0.00 0.00 0.00 0.04 0.24 0.27 0.07 0.13 0.50 0.90 1.30 1.03 0.61 0.50 0.47 0.47 0.38 0.35 0.43 0.40 0.17 0.07 0.04 0.03 0.02
0.00 0.00 0.00 0.00 0.01 0.02 0.00 0.00 0.00 0.00 0.00 0.00 0.00 0.00 0.01 0.01 0.01 0.02 0.00 0.00 0.00 0.07 0.24 0.31 0.11 0.05 0.24 0.74 1.25 0.79 0.69 1.09 0.60 0.44 0.35 0.44 0.49 0.32 0.08 0.03 0.02 0.01 0.01 0.01
0.01 0.01 0.00 0.00 0.00 0.00 0.00 0.00 0.00 0.00 0.00 0.00 0.00 0.00 0.00 0.01 0.09 0.28 0.06 0.00 0.06 0.18 0.43 0.34 0.11 0.07 0.36 0.61 0.81 0.74 0.62 0.45 0.48 0.57 0.39 0.20 0.06 0.01 0.00 0.00 0.00 0.00 0.00 0.00
0.00 0.00 0.00 0.00 0.00 0.00 0.02 0.00 0.00 0.01 0.03 0.01 0.01 0.00 0.00 0.01 0.03 0.08 0.09 0.13 0.28 0.50 0.49 0.29 0.16 0.31 0.54 0.56 0.47 0.47 0.52 0.53 0.29 0.08 0.03 0.01 0.00 0.00 0.00 0.00 0.00 0.00 0.00 0.00
0.01 0.01 0.01 0.00 0.00 0.00 0.00 0.02 0.01 0.01 0.08 0.13 0.09 0.04 0.02 0.04 0.13 0.32 0.42 0.64 0.69 0.78 0.63 0.42 0.46 0.70 0.62 0.52 0.40 0.29 0.23 0.09 0.01 0.00 0.00 0.00 0.00 0.00 0.00 0.00 0.00 0.00 0.00 0.00
0.05 0.05 0.02 0.02 0.03 0.07 0.02 0.07 0.10 0.06 0.13 0.41 0.80 0.50 0.20 0.07 0.08 0.23 0.37 0.35 0.29 0.26 0.26 0.34 0.41 0.24 0.16 0.09 0.06 0.02 0.01 0.00 0.00 0.00 0.00 0.00 0.00 0.00 0.00 0.00 0.00 0.00 0.00 0.00
0.14 0.09 0.04 0.09 0.26 0.26 0.03 0.03 0.13 0.25 0.32 0.12 0.17 0.27 0.28 0.12 0.13 0.08 0.06 0.08 0.08 0.08 0.08 0.09 0.08 0.05 0.02 0.00 0.00 0.00 0.00 0.00 0.00 0.00 0.00 0.00 0.00 0.00 0.00 0.00 0.00 0.00 0.00 0.00
0.22 0.11 0.05 0.01 0.02 0.05 0.03 0.01 0.00 0.01 0.02 0.01 0.04 0.02 0.00 0.01 0.03 0.03 0.03 0.05 0.08 0.05 0.03 0.02 0.01 0.00 0.00 0.00 0.00 0.00 0.00 0.00 0.00 0.00 0.00 0.00 0.00 0.00 0.00 0.00 0.00 0.00 0.00 0.00
0.07 0.07 0.05 0.09 0.21 0.06 0.02 0.02 0.02 0.03 0.07 0.08 0.06 0.03 0.01 0.00 0.00 0.00 0.01 0.02 0.02 0.02 0.00 0.00 0.00 0.00 0.00 0.00 0.00 0.00 0.00 0.00 0.00 0.00 0.00 0.00 0.00 0.00 0.00 0.00 0.00 0.00 0.00 0.00